Hattiesburg, MS

4:59 AM CDT on August 17, 2017 (GMT -0500)
Chain Municipal

Weather History for KHBG - March, 2014

Change the Weather History Date:

Tuesday, March 11, 2014

  Actual Average Record
Temperature  
Mean Temperature 61 °F 58 °F  
Max Temperature 67 °F 70 °F 89 °F (1955)
Min Temperature 54 °F 46 °F 23 °F (1996)
Degree Days  
Heating Degree Days 4 8  
Month to date heating degree days 109 97  
Since 1 July heating degree days 2032 1775  
Cooling Degree Days 0 1  
Month to date cooling degree days 4 11  
Year to date cooling degree days 21 26  
Growing Degree Days 10 (Base 50)    
Moisture  
Dew Point 61 °F    
Average Humidity 89    
Maximum Humidity 100    
Minimum Humidity 78    
Precipitation  
Precipitation 1.35 in 0.17 in 4.15 in (2016)
Month to date precipitation 1.96 2.07  
Year to date precipitation 11.86 13.20  
Sea Level Pressure  
Sea Level Pressure 29.81 in    
Wind  
Wind Speed 4 mph (SE)    
Max Wind Speed 14 mph    
Max Gust Speed 16 mph    
Visibility 6 miles    
Events Rain , Thunderstorm    
T = Trace of Precipitation, MM = Missing Value Source: NWS Daily Summary

Daily Weather History Graph

Daily Weather History Graph

Search for Another Location

Airport or City:

Trip Planner

Search our weather history database for the weather conditions in past years. The results will help you decide how hot, cold, wet, or windy it might be!

Date:

Astronomy

Mar. 11, 2014 Rise Set
Actual Time 7:11 AM CDT 7:02 PM CDT
Civil Twilight 6:47 AM CDT 7:26 PM CDT
Nautical Twilight 6:19 AM CDT 7:54 PM CDT
Astronomical Twilight 5:51 AM CDT 8:22 PM CDT
Moon 2:51 PM CDT (3/11) 3:51 AM CDT (3/11)
Length of Visible Light 12h 38m
Length of Day
11h 50m
Waxing Gibbous, 78% of the Moon is Illuminated
Mar 11
Waxing Gibbous
Mar 16
Full
Mar 23
Last Quarter
Mar 30
New
Apr 7
First Quarter

Hourly Weather History & Observations

Time (CDT) Temp. Dew Point Humidity Pressure Visibility Wind Dir Wind Speed Gust Speed Precip Events Conditions
12:53 AM 62.1 °F 55.0 °F 78% 29.96 in 10.0 mi Variable 3.5 mph - N/A   Clear
1:53 AM 62.1 °F 55.0 °F 78% 29.94 in 10.0 mi SSW 4.6 mph - N/A   Clear
2:53 AM 62.1 °F 55.9 °F 80% 29.91 in 10.0 mi SSW 5.8 mph - N/A   Clear
3:53 AM 60.1 °F 55.9 °F 86% 29.89 in 10.0 mi SSW 4.6 mph - N/A   Clear
4:53 AM 57.9 °F 55.0 °F 90% 29.87 in 10.0 mi Calm Calm - N/A   Clear
5:53 AM 55.0 °F 53.1 °F 93% 29.88 in 9.0 mi Calm Calm - N/A   Clear
6:53 AM 57.0 °F 54.0 °F 89% 29.88 in 9.0 mi SSE 3.5 mph - N/A   Overcast
7:53 AM 59.0 °F 55.9 °F 90% 29.89 in 9.0 mi Calm Calm - N/A   Overcast
8:24 AM 59.0 °F 57.0 °F 93% 29.90 in 2.5 mi Calm Calm - 0.00 in Rain Light Rain
8:51 AM 60.8 °F 57.2 °F 88% 29.89 in 3.0 mi Calm Calm - 0.01 in Rain Light Rain
8:53 AM 60.1 °F 57.9 °F 93% 29.89 in 3.0 mi Calm Calm - 0.01 in Rain Light Rain
9:06 AM 61.0 °F 59.0 °F 93% 29.89 in 2.0 mi SE 3.5 mph - 0.00 in Rain Light Rain
9:30 AM 62.1 °F 61.0 °F 96% 29.90 in 3.0 mi SE 3.5 mph - 0.00 in Rain Light Rain
9:37 AM 63.0 °F 62.1 °F 97% 29.90 in 4.0 mi SE 3.5 mph - 0.00 in   Overcast
9:53 AM 63.0 °F 62.1 °F 97% 29.88 in 4.0 mi ESE 3.5 mph - 0.00 in   Overcast
10:07 AM 64.9 °F 63.0 °F 93% 29.88 in 5.0 mi ESE 4.6 mph - N/A   Overcast
10:31 AM 66.0 °F 64.0 °F 93% 29.88 in 9.0 mi SE 5.8 mph - N/A   Overcast
10:42 AM 66.0 °F 63.0 °F 90% 29.89 in 10.0 mi South 4.6 mph - N/A   Overcast
10:53 AM 66.0 °F 63.0 °F 90% 29.88 in 10.0 mi SE 3.5 mph - N/A   Overcast
11:05 AM 66.0 °F 63.0 °F 90% 29.88 in 10.0 mi SE 5.8 mph - N/A   Overcast
11:53 AM 66.0 °F 63.0 °F 90% 29.86 in 2.5 mi SE 5.8 mph - 0.02 in Rain Heavy Rain
12:08 PM 66.0 °F 63.0 °F 90% 29.85 in 7.0 mi Variable 4.6 mph - 0.01 in Rain Light Rain
12:53 PM 66.0 °F 63.0 °F 90% 29.83 in 10.0 mi SSE 9.2 mph - 0.02 in Rain Light Rain
1:53 PM 64.9 °F 63.0 °F 93% 29.81 in 3.0 mi SE 11.5 mph - 0.05 in Rain Light Rain
2:19 PM 64.9 °F 63.0 °F 93% 29.79 in 5.0 mi SE 9.2 mph - 0.01 in Rain Light Rain
2:30 PM 64.0 °F 63.0 °F 96% 29.78 in 4.0 mi ESE 9.2 mph - 0.03 in Rain Rain
2:40 PM 64.0 °F 62.1 °F 93% 29.77 in 4.0 mi SE 10.4 mph - 0.06 in Rain Rain
2:53 PM 64.0 °F 62.1 °F 93% 29.75 in 5.0 mi SE 9.2 mph - 0.09 in Rain Rain
3:00 PM 64.0 °F 62.1 °F 93% 29.75 in 5.0 mi SE 8.1 mph - 0.02 in Rain Rain
3:53 PM 64.9 °F 63.0 °F 93% 29.72 in 10.0 mi ESE 4.6 mph - 0.04 in Rain Light Rain
4:53 PM 66.0 °F 63.0 °F 90% 29.73 in 10.0 mi South 4.6 mph - 0.01 in Rain Light Rain
5:53 PM 66.0 °F 64.0 °F 93% 29.72 in 10.0 mi Calm Calm - 0.03 in Rain Light Rain
5:59 PM 64.9 °F 64.0 °F 97% 29.72 in 7.0 mi Calm Calm - 0.00 in Rain Light Rain
6:37 PM 64.9 °F 64.0 °F 97% 29.72 in 2.0 mi North 3.5 mph - 0.04 in Rain Rain
6:53 PM 64.9 °F 64.0 °F 97% 29.72 in 1.8 mi Calm Calm - 0.07 in Rain Rain
7:13 PM 64.9 °F 64.0 °F 97% 29.72 in 0.8 mi Calm Calm - 0.32 in Rain , Thunderstorm Heavy Rain
7:26 PM 64.0 °F 64.0 °F 100% 29.74 in 2.0 mi South 6.9 mph - 0.46 in Rain , Thunderstorm Heavy Thunderstorms and Rain
7:41 PM 64.0 °F 63.0 °F 96% 29.74 in 2.5 mi South 4.6 mph - 0.59 in Rain , Thunderstorm Heavy Rain
7:48 PM 64.4 °F 62.6 °F 94% 29.74 in 3.0 mi South 5.8 mph - 0.62 in Rain Heavy Rain
7:53 PM 64.0 °F 63.0 °F 96% 29.74 in 3.0 mi South 4.6 mph - 0.64 in Rain Heavy Rain
8:46 PM 64.0 °F 63.0 °F 96% 29.75 in 2.5 mi Calm Calm - 0.28 in Rain Heavy Rain
8:53 PM 64.0 °F 63.0 °F 96% 29.75 in 2.5 mi Calm Calm - 0.30 in Rain Heavy Rain
9:01 PM 64.0 °F 63.0 °F 96% 29.75 in 5.0 mi ENE 4.6 mph - 0.03 in Rain Rain
9:28 PM 63.0 °F 62.1 °F 97% 29.74 in 10.0 mi SE 5.8 mph - 0.07 in Rain Light Rain
9:53 PM 63.0 °F 62.1 °F 97% 29.71 in 10.0 mi East 4.6 mph - 0.07 in   Partly Cloudy
10:08 PM 63.0 °F 62.1 °F 97% 29.71 in 10.0 mi ESE 6.9 mph - N/A   Partly Cloudy
10:53 PM 63.0 °F 62.1 °F 97% 29.70 in 10.0 mi SSE 4.6 mph - N/A   Partly Cloudy
11:53 PM 62.1 °F 61.0 °F 96% 29.73 in 10.0 mi SSW 3.5 mph - N/A   Clear